SCP
0 0 0 0 0 0 0 0 0 0 0 0 0 0 0 0 0 0 0 0 0 0 0 0 0 0 0 0 0 0 0 0 0 0 0 0 0 0 0 0 0 0 0
0 0 0 0 0 0 0 0 0 0 0 0 0 0 0 0 0 0 0 0 0 0 0 0 0 0 0 0 0 0 0 0 0 0 0 0 0 0 0 0 0 0 0
0 0 0 0 0 0 0 0 0 0 0 0 0 0 0 0 0 0 0 0 0 0 0 0 0 0 0 0 0 0 0 0 0 0 0 0 0 0 0 0 0 0 0
0 0 0 0 0 0 0 0 0 0 0 0 0 0 0 0 0 0 0 0 0 0 0 0 0 0 0 0 0 0 0 0 0 0 0 0 0 0 0 0 0 0 0
0 0 0 0 0 0 0 0 0 0 0 0 0 0 0 0 0 0 0 0 0 0 0 0 0 0 0 0 0 0 0 0 0 0 0 0 0 0 0 0 0 0 0
0 0 0 0 0 0 0 0 0 0 0 0 0 0 0 0 0 0 0 0 0 0 0 0 0 0 0 0 0 0 0 0 0 0 0 0 0 0 0 0 0 0 0
0 0 0 0 0 0 0 0 0 0 0 0 0 0 0 0 0 0 0 0 0 0 0 0 0 0 0 0 0 0 0 0 0 0 0 0 0 0 0 0 0 0 0
0 0 0 0 0 0 0 0 0 0 0 0 0 0 0 0 0 0 0 0 0 0 0 0 0 0 0 0 0 0 0 0 0 0 0 0 0 0 0 0 0 0 0
0 0 0 0 0 0 0 0 0 0 0 0 0 0 0 0 0 0 0 0 0 0 0 0 0 0 0 0 0 0 0 0 0 0 0 0 0 0 0 0 0 0 0
0 0 0 0 0 0 0 0 0 0 0 0 0 0 0 0 0 0 0 0 0 0 0 0 0 0 0 0 0 0 0 0 0 0 0 0 0 0 0 0 0 0 0
0 0 0 0 0 0 0 0 0 0 0 0 0 0 0 0 0 0 0 0 0 0 0 0 0 0 0 0 0 0 0 0 0 0 0 0 0 0 0 0 0 0 0
0 0 0 0 0 0 0 0 0 0 0 0 0 0 0 0 0 0 0 0 0 0 0 0 0 0 0 0 0 0 0 0 0 0 0 0 0 0 0 0 0 0 0
0 0 0 0 0 0 0 0 0 0 0 0 0 0 0 0 0 0 0 0 0 0 0 0 0 0 0 0 0 0 0 0 0 0 0 0 0 0 0 0 0 0 0
0 0 0 0 0 0 0 0 0 0 0 0 0 0 0 0 0 0 0 0 0 0 0 0 0 0 0 0 0 -0 0 0 0 0 0 0 0 0 0 0 0 0 0
0 0 0 0 0 0 0 0 0 0 0 0 0 0 0 0 0 0 0 0 0 0 0 0 0 0 0 -0 -0 -0 -0 -0 0 0 0 0 0 0 0 0 0 0 0
0 0 0 0 0 0 0 0 0 0 0 0 0 0 0 0 0 0 0 0 0 0 0 0 0 0 0 -0 -0 -0 -0 -0 0 0 0 0 0 0 0 0 0 0 0
0 0 0 0 0 0 0 0 0 0 0 0 0 0 0 0 0 0 0 0 0 0 0 0 0 0 0 0 -0 -0 -0 -0 0 0 0 0 0 0 0 0 0 0 0
0 0 0 0 0 0 0 0 0 0 0 0 0 0 0 0 0 0 0 0 0 0 0 0 0 0 0 0 0 0 0 -0 -0 -0 0 0 0 0 0 0 0 0 0
0 0 0 0 0 0 0 0 0 0 0 0 0 0 0 0 0 0 -0 0 0 0 0 0 0 0 0 0 0 0 0 0 0 0 0 0 0 0 0 0 0 0 0
0 0 0 0 0 0 0 0 0 0 0 0 0 0 0 0 0 0 0 0 0 0 0 0 0 0 0 0 0 0 0 0 0 0 0 0 0 0 0 0 0 0 0
0 0 0 0 0 0 0 0 0 0 0 0 0 0 -0 -0 0 0 0 0 0 0 0 0 0 0 0 0 0 0 0 0 0 0 0 0 0 0 0 0 0 0 0
0 0 0 0 0 0 0 0 0 0 0 0 0 0 -0 0 0 0 0 0 0 0 0 0 0 0 0 0 0 0 0 0 0 0 0 0 0 0 0 0 0 0 0
0 0 0 0 0 0 0 0 0 0 0 0 0 0 0 0 0 0 0 0 0 0 0 0 0 0 0 0 0 0 0 0 0 0 0 0 0 0 0 0 0 0 0
0 0 0 0 0 0 0 0 0 0 0 0 0 0 0 0 0 0 0 0 0 0 0 0 0 0 0 0 0 0 0 0 0 0 0 0 0 0 0 0 0 0 0
0 0 0 0 0 0 0 0 0 0 0 0 0 0 0 0 0 0 0 0 0 0 0 0 0 0 0 0 0 0 0 0 0 0 0 0 0 0 0 0 0 0 0
0 0 0 0 0 0 0 0 0 0 0 0 0 0 0 0 0 0 0 0 0 0 0 0 0 0 0 0 0 0 0 0 0 0 0 0 0 0 0 0 0 0 0
Wind_Speed_500mb
37 37 36 35 35 36 37 39 41 41 40 38 37 38 40 42 45 47 51 55 58 61 62 62 61 59 60 63 62 64 64 63 76 96 83 78 80 77 76 73 74 73 77
29 29 30 30 31 31 30 30 28 27 27 28 30 32 35 37 39 40 42 45 48 51 53 56 58 59 59 58 61 62 58 58 62 73 82 76 72 65 74 72 77 76 80
27 27 27 27 27 26 26 26 26 27 29 30 31 32 34 37 40 42 44 43 43 44 46 48 49 50 51 53 56 59 61 66 72 79 91 87 87 88 89 86 74 82 84
26 26 27 27 27 28 28 28 28 28 30 33 36 38 40 41 44 45 46 45 45 44 44 44 44 45 46 46 46 48 48 49 51 55 64 71 71 70 71 74 84 79 85
25 26 26 27 28 29 30 31 32 33 36 39 40 41 42 43 47 48 47 46 44 42 40 40 40 39 39 39 40 40 41 41 42 46 52 56 58 59 60 62 69 72 78
25 26 26 29 30 31 33 33 34 34 35 37 39 42 43 43 47 50 51 48 45 44 43 41 40 38 39 39 42 43 42 42 43 45 49 52 52 54 55 60 65 71 85
24 27 30 30 31 33 35 37 37 36 36 36 38 40 41 41 44 49 50 50 47 46 45 45 45 41 43 45 47 49 48 45 46 47 53 55 56 52 54 58 55 59 73
26 27 30 34 37 38 38 39 39 39 38 38 37 39 43 42 48 52 53 52 50 50 47 48 49 48 46 50 54 55 52 50 48 50 55 58 59 58 51 49 52 61 69
31 33 34 34 37 39 40 41 43 43 42 43 42 42 43 44 50 60 59 57 55 56 52 50 51 51 49 50 56 62 62 54 50 53 55 58 60 60 46 44 50 50 66
25 29 32 35 37 36 37 37 38 38 36 36 37 38 38 40 38 41 46 53 58 61 60 56 52 54 55 52 56 62 70 62 60 61 59 60 58 57 54 41 40 47 52
25 28 29 31 34 37 38 41 42 43 43 42 41 39 38 39 37 38 41 51 56 62 67 66 63 62 62 60 57 61 61 63 66 68 70 67 65 62 52 44 41 42 48
23 25 27 29 31 36 39 39 41 44 45 47 50 50 52 50 48 47 43 47 54 63 69 71 73 75 74 69 70 68 63 63 66 68 73 72 66 65 59 54 51 48 45
25 27 28 30 34 37 40 40 40 42 45 47 50 55 59 57 58 58 59 61 65 66 74 76 75 80 85 85 75 76 74 69 70 71 72 74 68 63 63 65 64 52 47
28 28 29 32 35 36 37 39 42 43 45 48 52 57 62 64 62 61 61 66 71 75 83 91 84 77 93 97 95 89 84 77 71 72 74 73 73 70 67 63 67 64 60
30 32 35 39 40 41 42 43 44 41 38 44 49 52 57 62 60 54 58 63 66 67 74 86 91 87 88 92 99 100 93 89 83 74 72 76 80 81 80 66 65 69 60
34 37 39 40 41 42 45 44 36 39 40 39 39 42 48 50 52 54 57 59 59 61 70 79 86 86 90 92 92 90 85 77 79 87 88 84 82 81 80 75 66 63 63
37 38 39 39 41 43 44 48 55 42 44 44 44 46 47 50 52 55 55 56 56 55 65 73 78 79 83 86 87 83 77 71 74 82 90 92 89 90 87 80 69 71 72
33 35 38 39 41 43 46 50 54 60 63 58 51 57 58 58 57 55 54 55 61 65 73 80 84 84 86 89 89 89 88 84 78 74 74 82 90 92 91 87 74 66 72
34 36 38 40 42 45 47 50 53 57 61 64 65 56 57 60 61 59 60 67 78 85 88 89 86 87 89 90 93 92 90 86 81 78 78 77 75 74 86 87 78 70 71
36 37 40 43 44 45 47 50 52 55 59 62 63 63 64 62 62 63 63 71 82 89 90 92 94 93 92 92 90 90 91 88 84 79 73 69 69 69 76 81 86 75 64
39 40 42 42 42 44 47 50 53 57 61 65 66 63 62 61 71 74 77 82 84 81 86 91 91 92 92 93 91 87 86 85 80 77 76 73 68 69 68 73 82 87 88
44 45 47 50 53 53 55 57 59 61 62 67 70 67 62 64 71 79 86 90 90 92 94 95 95 93 91 91 91 93 92 88 83 79 77 75 73 72 72 73 79 86 76
48 51 52 52 53 55 57 57 59 61 64 66 68 70 67 69 78 88 95 96 94 97 98 96 97 98 95 93 91 92 95 95 91 85 81 78 77 76 71 69 65 67 71
46 50 53 54 55 56 58 60 60 60 62 66 68 69 71 75 82 90 95 96 98 100 98 100 101 102 101 99 95 93 93 92 89 87 84 84 82 80 79 76 75 72 68
48 51 53 55 56 57 59 61 62 63 63 66 69 71 72 74 82 91 97 102 104 107 106 106 108 107 103 102 99 94 90 86 85 86 87 87 86 83 83 83 82 82 76
50 52 55 57 59 60 62 63 63 64 64 65 68 70 72 76 84 95 100 107 111 111 110 111 109 101 99 98 96 90 82 75 72 70 76 81 84 83 83 83 82 81 83
Wind_Direction_500mb
255 255 252 248 243 241 240 239 240 243 246 249 253 256 257 259 260 261 262 262 261 262 265 268 270 267 263 260 261 266 271 275 279 287 291 295 295 296 299 299 296 287 286
249 245 241 238 236 235 236 236 236 238 243 248 255 262 266 269 270 270 269 269 268 267 267 267 268 268 268 266 262 263 264 265 270 279 284 286 291 296 296 296 297 296 298
241 239 238 238 237 236 235 239 247 254 259 261 263 267 272 274 275 276 275 275 274 274 274 273 272 271 271 270 271 271 268 267 262 266 275 280 282 283 285 286 288 289 286
247 245 243 241 241 242 247 253 257 260 263 266 269 269 270 272 276 279 279 279 278 277 277 277 277 276 275 275 276 275 276 277 279 280 284 289 292 297 296 297 293 290 287
250 253 257 259 261 262 263 264 265 266 268 269 268 268 271 273 274 275 278 279 278 276 275 276 276 277 281 283 285 288 290 292 294 295 294 299 303 307 307 307 301 304 301
256 257 259 263 269 272 272 270 271 272 274 275 277 279 279 277 276 275 275 275 275 274 271 272 276 282 286 287 285 284 287 291 293 293 295 297 302 307 309 304 301 302 304
273 279 283 284 285 286 286 285 283 283 284 284 283 282 280 276 271 272 275 275 277 277 277 276 277 280 282 286 288 286 287 288 291 294 293 294 297 299 308 310 310 303 295
293 293 295 295 297 297 297 297 294 293 292 290 292 293 290 287 284 282 285 281 276 275 273 273 274 276 278 280 282 283 285 288 291 293 293 297 294 294 297 301 303 302 300
305 309 310 310 308 306 304 304 303 300 298 294 293 291 289 288 281 276 275 282 284 285 283 280 281 279 281 280 282 285 286 288 294 291 291 291 294 295 289 289 296 300 306
318 319 319 318 318 319 317 316 312 310 308 304 300 298 298 293 288 284 286 286 286 289 289 290 286 285 283 287 287 288 289 296 296 293 290 290 293 296 293 275 283 290 300
323 320 317 318 316 313 311 308 307 306 306 305 301 297 294 292 293 293 294 298 300 296 292 292 292 293 293 288 288 289 293 298 296 296 296 294 296 298 296 284 284 283 291
339 327 324 323 324 322 320 316 315 311 308 306 303 298 296 296 299 295 299 299 297 295 296 296 297 294 292 293 292 296 296 295 294 293 291 292 292 294 299 293 288 287 280
344 335 332 332 329 323 324 323 319 316 316 314 312 310 306 304 302 299 294 291 294 297 295 298 300 297 295 294 292 292 295 294 294 292 291 289 288 288 290 294 295 286 278
337 336 339 337 334 332 331 330 328 326 323 321 320 315 313 314 312 313 313 308 302 300 299 299 300 296 294 295 293 293 293 293 292 290 289 288 289 286 284 289 293 295 289
345 348 349 347 344 341 341 341 338 334 330 319 317 318 319 315 319 319 314 313 311 308 306 301 301 301 301 299 297 297 296 295 293 287 284 284 285 287 287 285 286 289 280
352 354 355 351 348 347 344 341 345 341 339 338 331 321 317 314 316 316 312 310 310 310 305 299 301 305 305 305 304 303 301 297 287 286 286 285 285 285 286 287 284 276 273
355 355 352 348 348 347 344 341 339 343 342 342 339 335 329 320 316 315 313 313 310 312 309 313 312 312 311 309 307 304 297 291 290 287 285 285 284 283 284 284 280 273 271
349 347 343 342 342 340 338 336 335 335 336 339 340 338 336 326 321 317 314 312 315 320 319 316 313 311 309 307 306 301 299 296 293 289 285 284 284 284 284 279 274 271 268
339 336 334 333 332 330 329 328 329 330 330 331 333 335 330 325 322 325 328 319 320 319 318 314 311 307 305 304 302 298 295 292 290 287 284 283 283 280 278 279 279 274 268
329 326 324 323 322 321 321 322 324 325 326 327 329 332 330 324 327 327 326 322 319 317 317 315 313 308 305 302 302 301 297 293 290 287 284 280 276 272 272 274 274 272 266
324 320 315 314 315 317 319 321 323 324 326 327 329 333 333 315 317 321 322 324 322 319 318 315 311 309 308 304 299 293 289 286 284 282 282 281 278 274 272 270 267 263 264
333 328 325 325 325 324 323 323 323 324 326 326 327 329 330 325 326 326 326 326 325 323 322 318 313 310 307 305 303 297 290 284 282 279 277 276 275 273 271 269 269 272 275
332 332 331 326 321 319 317 318 320 323 324 324 325 327 328 329 330 330 329 328 325 324 323 319 315 312 310 306 302 298 293 290 289 286 277 273 272 270 268 267 265 264 264
328 327 326 328 326 321 317 317 319 321 322 323 326 327 329 329 328 330 332 332 329 327 324 320 316 314 311 308 303 299 295 293 291 289 284 277 271 270 269 268 269 271 270
333 329 327 325 324 325 322 320 319 321 322 324 326 327 327 327 329 332 334 335 333 329 328 324 319 317 313 309 305 301 296 293 289 285 280 273 268 266 263 262 262 265 266
334 333 331 329 327 326 325 323 321 320 322 324 325 326 326 328 331 335 336 337 337 334 330 327 325 320 317 313 309 306 302 296 291 285 281 276 273 270 266 264 263 260 261
Wind_Speed_850mb
37 37 36 35 35 36 37 39 41 41 40 38 37 38 40 42 45 47 51 55 58 61 62 62 61 59 60 63 62 64 64 63 76 96 83 78 80 77 76 73 74 73 77
29 29 30 30 31 31 30 30 28 27 27 28 30 32 35 37 39 40 42 45 48 51 53 56 58 59 59 58 61 62 58 58 62 73 82 76 72 65 74 72 77 76 80
27 27 27 27 27 26 26 26 26 27 29 30 31 32 34 37 40 42 44 43 43 44 46 48 49 50 51 53 56 59 61 66 72 79 91 87 87 88 89 86 74 82 84
26 26 27 27 27 28 28 28 28 28 30 33 36 38 40 41 44 45 46 45 45 44 44 44 44 45 46 46 46 48 48 49 51 55 64 71 71 70 71 74 84 79 85
25 26 26 27 28 29 30 31 32 33 36 39 40 41 42 43 47 48 47 46 44 42 40 40 40 39 39 39 40 40 41 41 42 46 52 56 58 59 60 62 69 72 78
25 26 26 29 30 31 33 33 34 34 35 37 39 42 43 43 47 50 51 48 45 44 43 41 40 38 39 39 42 43 42 42 43 45 49 52 52 54 55 60 65 71 85
24 27 30 30 31 33 35 37 37 36 36 36 38 40 41 41 44 49 50 50 47 46 45 45 45 41 43 45 47 49 48 45 46 47 53 55 56 52 54 58 55 59 73
26 27 30 34 37 38 38 39 39 39 38 38 37 39 43 42 48 52 53 52 50 50 47 48 49 48 46 50 54 55 52 50 48 50 55 58 59 58 51 49 52 61 69
31 33 34 34 37 39 40 41 43 43 42 43 42 42 43 44 50 60 59 57 55 56 52 50 51 51 49 50 56 62 62 54 50 53 55 58 60 60 46 44 50 50 66
25 29 32 35 37 36 37 37 38 38 36 36 37 38 38 40 38 41 46 53 58 61 60 56 52 54 55 52 56 62 70 62 60 61 59 60 58 57 54 41 40 47 52
25 28 29 31 34 37 38 41 42 43 43 42 41 39 38 39 37 38 41 51 56 62 67 66 63 62 62 60 57 61 61 63 66 68 70 67 65 62 52 44 41 42 48
23 25 27 29 31 36 39 39 41 44 45 47 50 50 52 50 48 47 43 47 54 63 69 71 73 75 74 69 70 68 63 63 66 68 73 72 66 65 59 54 51 48 45
25 27 28 30 34 37 40 40 40 42 45 47 50 55 59 57 58 58 59 61 65 66 74 76 75 80 85 85 75 76 74 69 70 71 72 74 68 63 63 65 64 52 47
28 28 29 32 35 36 37 39 42 43 45 48 52 57 62 64 62 61 61 66 71 75 83 91 84 77 93 97 95 89 84 77 71 72 74 73 73 70 67 63 67 64 60
30 32 35 39 40 41 42 43 44 41 38 44 49 52 57 62 60 54 58 63 66 67 74 86 91 87 88 92 99 100 93 89 83 74 72 76 80 81 80 66 65 69 60
34 37 39 40 41 42 45 44 36 39 40 39 39 42 48 50 52 54 57 59 59 61 70 79 86 86 90 92 92 90 85 77 79 87 88 84 82 81 80 75 66 63 63
37 38 39 39 41 43 44 48 55 42 44 44 44 46 47 50 52 55 55 56 56 55 65 73 78 79 83 86 87 83 77 71 74 82 90 92 89 90 87 80 69 71 72
33 35 38 39 41 43 46 50 54 60 63 58 51 57 58 58 57 55 54 55 61 65 73 80 84 84 86 89 89 89 88 84 78 74 74 82 90 92 91 87 74 66 72
34 36 38 40 42 45 47 50 53 57 61 64 65 56 57 60 61 59 60 67 78 85 88 89 86 87 89 90 93 92 90 86 81 78 78 77 75 74 86 87 78 70 71
36 37 40 43 44 45 47 50 52 55 59 62 63 63 64 62 62 63 63 71 82 89 90 92 94 93 92 92 90 90 91 88 84 79 73 69 69 69 76 81 86 75 64
39 40 42 42 42 44 47 50 53 57 61 65 66 63 62 61 71 74 77 82 84 81 86 91 91 92 92 93 91 87 86 85 80 77 76 73 68 69 68 73 82 87 88
44 45 47 50 53 53 55 57 59 61 62 67 70 67 62 64 71 79 86 90 90 92 94 95 95 93 91 91 91 93 92 88 83 79 77 75 73 72 72 73 79 86 76
48 51 52 52 53 55 57 57 59 61 64 66 68 70 67 69 78 88 95 96 94 97 98 96 97 98 95 93 91 92 95 95 91 85 81 78 77 76 71 69 65 67 71
46 50 53 54 55 56 58 60 60 60 62 66 68 69 71 75 82 90 95 96 98 100 98 100 101 102 101 99 95 93 93 92 89 87 84 84 82 80 79 76 75 72 68
48 51 53 55 56 57 59 61 62 63 63 66 69 71 72 74 82 91 97 102 104 107 106 106 108 107 103 102 99 94 90 86 85 86 87 87 86 83 83 83 82 82 76
50 52 55 57 59 60 62 63 63 64 64 65 68 70 72 76 84 95 100 107 111 111 110 111 109 101 99 98 96 90 82 75 72 70 76 81 84 83 83 83 82 81 83
Wind_Direction_850mb
255 255 252 248 243 241 240 239 240 243 246 249 253 256 257 259 260 261 262 262 261 262 265 268 270 267 263 260 261 266 271 275 279 287 291 295 295 296 299 299 296 287 286
249 245 241 238 236 235 236 236 236 238 243 248 255 262 266 269 270 270 269 269 268 267 267 267 268 268 268 266 262 263 264 265 270 279 284 286 291 296 296 296 297 296 298
241 239 238 238 237 236 235 239 247 254 259 261 263 267 272 274 275 276 275 275 274 274 274 273 272 271 271 270 271 271 268 267 262 266 275 280 282 283 285 286 288 289 286
247 245 243 241 241 242 247 253 257 260 263 266 269 269 270 272 276 279 279 279 278 277 277 277 277 276 275 275 276 275 276 277 279 280 284 289 292 297 296 297 293 290 287
250 253 257 259 261 262 263 264 265 266 268 269 268 268 271 273 274 275 278 279 278 276 275 276 276 277 281 283 285 288 290 292 294 295 294 299 303 307 307 307 301 304 301
256 257 259 263 269 272 272 270 271 272 274 275 277 279 279 277 276 275 275 275 275 274 271 272 276 282 286 287 285 284 287 291 293 293 295 297 302 307 309 304 301 302 304
273 279 283 284 285 286 286 285 283 283 284 284 283 282 280 276 271 272 275 275 277 277 277 276 277 280 282 286 288 286 287 288 291 294 293 294 297 299 308 310 310 303 295
293 293 295 295 297 297 297 297 294 293 292 290 292 293 290 287 284 282 285 281 276 275 273 273 274 276 278 280 282 283 285 288 291 293 293 297 294 294 297 301 303 302 300
305 309 310 310 308 306 304 304 303 300 298 294 293 291 289 288 281 276 275 282 284 285 283 280 281 279 281 280 282 285 286 288 294 291 291 291 294 295 289 289 296 300 306
318 319 319 318 318 319 317 316 312 310 308 304 300 298 298 293 288 284 286 286 286 289 289 290 286 285 283 287 287 288 289 296 296 293 290 290 293 296 293 275 283 290 300
323 320 317 318 316 313 311 308 307 306 306 305 301 297 294 292 293 293 294 298 300 296 292 292 292 293 293 288 288 289 293 298 296 296 296 294 296 298 296 284 284 283 291
339 327 324 323 324 322 320 316 315 311 308 306 303 298 296 296 299 295 299 299 297 295 296 296 297 294 292 293 292 296 296 295 294 293 291 292 292 294 299 293 288 287 280
344 335 332 332 329 323 324 323 319 316 316 314 312 310 306 304 302 299 294 291 294 297 295 298 300 297 295 294 292 292 295 294 294 292 291 289 288 288 290 294 295 286 278
337 336 339 337 334 332 331 330 328 326 323 321 320 315 313 314 312 313 313 308 302 300 299 299 300 296 294 295 293 293 293 293 292 290 289 288 289 286 284 289 293 295 289
345 348 349 347 344 341 341 341 338 334 330 319 317 318 319 315 319 319 314 313 311 308 306 301 301 301 301 299 297 297 296 295 293 287 284 284 285 287 287 285 286 289 280
352 354 355 351 348 347 344 341 345 341 339 338 331 321 317 314 316 316 312 310 310 310 305 299 301 305 305 305 304 303 301 297 287 286 286 285 285 285 286 287 284 276 273
355 355 352 348 348 347 344 341 339 343 342 342 339 335 329 320 316 315 313 313 310 312 309 313 312 312 311 309 307 304 297 291 290 287 285 285 284 283 284 284 280 273 271
349 347 343 342 342 340 338 336 335 335 336 339 340 338 336 326 321 317 314 312 315 320 319 316 313 311 309 307 306 301 299 296 293 289 285 284 284 284 284 279 274 271 268
339 336 334 333 332 330 329 328 329 330 330 331 333 335 330 325 322 325 328 319 320 319 318 314 311 307 305 304 302 298 295 292 290 287 284 283 283 280 278 279 279 274 268
329 326 324 323 322 321 321 322 324 325 326 327 329 332 330 324 327 327 326 322 319 317 317 315 313 308 305 302 302 301 297 293 290 287 284 280 276 272 272 274 274 272 266
324 320 315 314 315 317 319 321 323 324 326 327 329 333 333 315 317 321 322 324 322 319 318 315 311 309 308 304 299 293 289 286 284 282 282 281 278 274 272 270 267 263 264
333 328 325 325 325 324 323 323 323 324 326 326 327 329 330 325 326 326 326 326 325 323 322 318 313 310 307 305 303 297 290 284 282 279 277 276 275 273 271 269 269 272 275
332 332 331 326 321 319 317 318 320 323 324 324 325 327 328 329 330 330 329 328 325 324 323 319 315 312 310 306 302 298 293 290 289 286 277 273 272 270 268 267 265 264 264
328 327 326 328 326 321 317 317 319 321 322 323 326 327 329 329 328 330 332 332 329 327 324 320 316 314 311 308 303 299 295 293 291 289 284 277 271 270 269 268 269 271 270
333 329 327 325 324 325 322 320 319 321 322 324 326 327 327 327 329 332 334 335 333 329 328 324 319 317 313 309 305 301 296 293 289 285 280 273 268 266 263 262 262 265 266
334 333 331 329 327 326 325 323 321 320 322 324 325 326 326 328 331 335 336 337 337 334 330 327 325 320 317 313 309 306 302 296 291 285 281 276 273 270 266 264 263 260 261